This is the latest recevied weather packets stored in our database for station/object KB9HUO. If no packets are shown the sender has not sent any weather packets the latest 10 day(s).
| Time | Temp. | Humidity | Pressure | Rain* | Wind** | Luminosity | Snow |
|---|---|---|---|---|---|---|---|
| 1777731340 | 8.89° C | 73% | 1020 hPa | 0 mm | - | 136 W/m² | - |
| 1777731038 | 8.89° C | 75% | 1019.6 hPa | 0 mm | - | 129 W/m² | - |
| 1777730736 | 8.33° C | 75% | 1019.7 hPa | 0 mm | - | 142 W/m² | - |
| 1777730432 | 8.33° C | 74% | 1019.7 hPa | 0 mm | - | 132 W/m² | - |
| 1777730128 | 8.33° C | 76% | 1019.8 hPa | 0 mm | - | 133 W/m² | - |
| 1777729825 | 8.33° C | 77% | 1020 hPa | 0 mm | - | 135 W/m² | - |
| 1777729521 | 8.33° C | 79% | 1019.7 hPa | 0 mm | - | 116 W/m² | - |
| 1777729219 | 8.33° C | 79% | 1019.8 hPa | 0 mm | - | 174 W/m² | - |
| 1777728915 | 7.78° C | 80% | 1019.7 hPa | 0 mm | - | 132 W/m² | - |
| 1777728612 | 7.78° C | 83% | 1019.4 hPa | 0 mm | - | 134 W/m² | - |
| 1777728309 | 7.22° C | 83% | 1019.7 hPa | 0 mm | - | 96 W/m² | - |
| 1777728006 | 7.22° C | 84% | 1019.6 hPa | 0 mm | - | 93 W/m² | - |
| 1777727703 | 7.22° C | 84% | 1019.5 hPa | 0 mm | - | 79 W/m² | - |
| 1777727400 | 7.22° C | 84% | 1019.6 hPa | 0 mm | - | 47 W/m² | - |
| 1777727097 | 7.22° C | 85% | 1019.5 hPa | 0 mm | - | 40 W/m² | - |
| 1777726795 | 6.67° C | 86% | 1019.8 hPa | 0 mm | - | 60 W/m² | - |
| 1777726491 | 6.67° C | 86% | 1019.7 hPa | 0 mm | - | 48 W/m² | - |
| 1777726189 | 6.67° C | 88% | 1019.7 hPa | 0 mm | - | 31 W/m² | - |
| 1777725885 | 6.67° C | 90% | 1019.6 hPa | 0 mm | - | 27 W/m² | - |
| 1777725583 | 6.67° C | 92% | 1019.7 hPa | 0 mm | - | 33 W/m² | - |
| 1777725280 | 6.67° C | 93% | 1019.5 hPa | 0 mm | - | 32 W/m² | - |
| 1777724977 | 6.67° C | 93% | 1019.4 hPa | 0 mm | - | 29 W/m² | - |
| 1777724673 | 6.67° C | 93% | 1019.4 hPa | 0 mm | - | 17 W/m² | - |
| 1777724372 | 6.67° C | 94% | 1019.3 hPa | 0 mm | - | 13 W/m² | - |
| 1777724068 | 6.67° C | 94% | 1019.3 hPa | 0 mm | - | 13 W/m² | - |
* Rain latest hour (hover to see other rain measurements)
** Current wind speed in m/s (hover to see current wind gust speed)